When you browse on this site, cookies collect data to enhance your experience and personalize the content and advertising you see.
Visit our Privacy Policy to learn more. By continuing to use the site, you agree to this use of cookies and data.
  • In Lithuania
  • List of Countries
  • For 7 days
  • Water Temperature
  • Weather Map
  • Weather Widgets
  • user-avatar
    Login

    Hourly Weather Pustniki

    Today, 19 August, Monday

    Time Temperature Precipitation Wind Pressure Humidity
    00:00 +20°C° 0.2 mm 4 mps 744 mmHg 75%
    01:00 +20°C° 0 mm 3 mps 744 mmHg 83%
    02:00 +19°C° 0 mm 3 mps 744 mmHg 87%
    03:00 +19°C° 0 mm 3 mps 744 mmHg 90%
    04:00 +19°C° 0 mm 3 mps 745 mmHg 93%
    05:00 +19°C° 0.2 mm 2 mps 745 mmHg 92%
    06:00 +20°C° 0.2 mm 2 mps 746 mmHg 90%
    07:00 +21°C° 0 mm 2 mps 747 mmHg 90%
    08:00 +23°C° 0 mm 2 mps 747 mmHg 85%
    09:00 +24°C° 0 mm 2 mps 747 mmHg 81%
    10:00 +24°C° 0 mm 2 mps 748 mmHg 76%
    11:00 +25°C° 0 mm 2 mps 748 mmHg 72%
    12:00 +26°C° 0 mm 2 mps 748 mmHg 68%
    13:00 +26°C° 0 mm 3 mps 749 mmHg 66%
    14:00 +25°C° 0.6 mm 3 mps 749 mmHg 71%
    15:00 +24°C° 0.6 mm 3 mps 749 mmHg 75%
    16:00 +22°C° 0.6 mm 3 mps 749 mmHg 80%
    17:00 +21°C° 0.2 mm 2 mps 750 mmHg 83%
    18:00 +20°C° 0.2 mm 2 mps 750 mmHg 87%
    19:00 +19°C° 0.2 mm 1 mps 750 mmHg 90%
    20:00 +19°C° 0 mm 1 mps 750 mmHg 91%
    21:00 +18°C° 0 mm 1 mps 750 mmHg 92%
    22:00 +16°C° 0 mm 1 mps 751 mmHg 92%
    23:00 +16°C° 0 mm 1 mps 751 mmHg 93%

    Tomorrow, 20 August, Tuesday

    Time Temperature Precipitation Wind Pressure Humidity
    00:00 +16°C° 0 mm 1 mps 751 mmHg 93%
    01:00 +16°C° 0 mm 1 mps 752 mmHg 93%
    02:00 +16°C° 0 mm 1 mps 752 mmHg 93%
    03:00 +16°C° 0 mm 1 mps 752 mmHg 93%
    04:00 +15°C° 0 mm 1 mps 752 mmHg 94%
    05:00 +18°C° 0 mm 1 mps 753 mmHg 89%
    06:00 +19°C° 0 mm 1 mps 753 mmHg 85%
    07:00 +20°C° 0 mm 1 mps 753 mmHg 81%
    08:00 +20°C° 0 mm 2 mps 753 mmHg 70%
    09:00 +23°C° 0 mm 2 mps 753 mmHg 60%
    10:00 +24°C° 0 mm 3 mps 754 mmHg 49%
    11:00 +25°C° 0 mm 3 mps 754 mmHg 47%
    12:00 +25°C° 0 mm 3 mps 754 mmHg 45%
    13:00 +26°C° 0 mm 3 mps 754 mmHg 43%
    14:00 +25°C° 0 mm 2 mps 754 mmHg 44%
    15:00 +25°C° 0 mm 2 mps 754 mmHg 45%
    16:00 +25°C° 0 mm 2 mps 754 mmHg 46%
    17:00 +23°C° 0 mm 2 mps 754 mmHg 55%
    18:00 +20°C° 0 mm 2 mps 754 mmHg 64%
    19:00 +18°C° 0 mm 2 mps 754 mmHg 73%
    20:00 +18°C° 0 mm 3 mps 754 mmHg 74%
    21:00 +18°C° 0 mm 3 mps 754 mmHg 75%
    22:00 +18°C° 0 mm 3 mps 754 mmHg 76%
    23:00 +18°C° 0.1 mm 3 mps 754 mmHg 77%

    Day after tomorrow, 21 August, Wednesday

    Time Temperature Precipitation Wind Pressure Humidity
    00:00 +17°C° 0.1 mm 2 mps 754 mmHg 79%
    01:00 +17°C° 0.1 mm 2 mps 754 mmHg 80%
    02:00 +16°C° 1.5 mm 3 mps 753 mmHg 84%
    03:00 +15°C° 1.5 mm 4 mps 753 mmHg 88%
    04:00 +14°C° 1.5 mm 5 mps 753 mmHg 91%
    05:00 +14°C° 0.9 mm 5 mps 753 mmHg 92%
    06:00 +13°C° 0.9 mm 6 mps 753 mmHg 92%
    07:00 +13°C° 0.9 mm 6 mps 753 mmHg 93%
    08:00 +13°C° 0.5 mm 5 mps 754 mmHg 93%
    09:00 +13°C° 0.5 mm 5 mps 754 mmHg 93%
    10:00 +13°C° 0.5 mm 4 mps 754 mmHg 93%
    11:00 +14°C° 0 mm 4 mps 755 mmHg 89%
    12:00 +14°C° 0 mm 3 mps 755 mmHg 85%
    13:00 +16°C° 0 mm 3 mps 755 mmHg 82%
    14:00 +17°C° 0 mm 2 mps 755 mmHg 78%
    15:00 +18°C° 0 mm 2 mps 756 mmHg 75%
    16:00 +19°C° 0 mm 2 mps 756 mmHg 71%
    17:00 +18°C° 0 mm 2 mps 756 mmHg 77%
    18:00 +16°C° 0 mm 1 mps 756 mmHg 82%
    19:00 +15°C° 0 mm 1 mps 756 mmHg 87%
    20:00 +14°C° 0 mm 1 mps 757 mmHg 89%
    21:00 +14°C° 0 mm 1 mps 757 mmHg 91%
    22:00 +13°C° 0 mm 1 mps 757 mmHg 92%
    23:00 +13°C° 0 mm 1 mps 757 mmHg 93%

    22 August, Thursday

    Time Temperature Precipitation Wind Pressure Humidity
    00:00 +13°C° 0 mm 1 mps 757 mmHg 93%
    01:00 +12°C° 0 mm 1 mps 757 mmHg 94%
    02:00 +12°C° 0 mm 1 mps 757 mmHg 93%
    03:00 +11°C° 0 mm 0 mps 757 mmHg 93%
    04:00 +11°C° 0 mm 0 mps 757 mmHg 93%
    05:00 +12°C° 0 mm 0 mps 757 mmHg 89%
    06:00 +14°C° 0 mm 0 mps 758 mmHg 85%
    07:00 +15°C° 0 mm 0 mps 758 mmHg 81%
    08:00 +18°C° 0 mm 1 mps 758 mmHg 74%
    09:00 +20°C° 0 mm 1 mps 758 mmHg 66%
    10:00 +21°C° 0 mm 1 mps 758 mmHg 59%
    11:00 +22°C° 0 mm 1 mps 758 mmHg 55%
    12:00 +23°C° 0 mm 1 mps 758 mmHg 52%
    13:00 +23°C° 0 mm 1 mps 757 mmHg 48%
    14:00 +23°C° 0 mm 1 mps 757 mmHg 48%
    15:00 +23°C° 0 mm 1 mps 757 mmHg 49%
    16:00 +23°C° 0 mm 1 mps 757 mmHg 50%
    17:00 +21°C° 0 mm 1 mps 757 mmHg 57%
    18:00 +20°C° 0 mm 1 mps 757 mmHg 64%
    19:00 +18°C° 0 mm 1 mps 757 mmHg 71%
    20:00 +16°C° 0 mm 1 mps 757 mmHg 74%
    21:00 +16°C° 0 mm 1 mps 757 mmHg 76%
    22:00 +15°C° 0 mm 1 mps 757 mmHg 79%
    23:00 +15°C° 0 mm 1 mps 757 mmHg 80%

    23 August, Friday

    Time Temperature Precipitation Wind Pressure Humidity
    00:00 +14°C° 0 mm 2 mps 757 mmHg 80%
    01:00 +14°C° 0 mm 2 mps 757 mmHg 81%
    02:00 +14°C° 0 mm 2 mps 757 mmHg 81%
    03:00 +14°C° 0 mm 2 mps 757 mmHg 82%
    04:00 +15°C° 0 mm 2 mps 757 mmHg 82%
    05:00 +16°C° 0 mm 2 mps 757 mmHg 79%
    06:00 +16°C° 0 mm 2 mps 758 mmHg 76%
    07:00 +17°C° 0 mm 2 mps 758 mmHg 73%
    08:00 +19°C° 0 mm 2 mps 758 mmHg 66%
    09:00 +21°C° 0 mm 2 mps 758 mmHg 58%
    10:00 +24°C° 0 mm 1 mps 758 mmHg 51%
    11:00 +24°C° 0 mm 2 mps 758 mmHg 48%
    12:00 +25°C° 0 mm 2 mps 758 mmHg 45%
    13:00 +25°C° 0 mm 2 mps 758 mmHg 43%
    14:00 +25°C° 0 mm 2 mps 758 mmHg 47%
    15:00 +24°C° 0 mm 1 mps 758 mmHg 50%
    16:00 +24°C° 0 mm 1 mps 758 mmHg 54%
    17:00 +22°C° 0 mm 1 mps 758 mmHg 57%
    18:00 +21°C° 0 mm 1 mps 758 mmHg 60%
    19:00 +19°C° 0 mm 1 mps 758 mmHg 64%
    20:00 +19°C° 0 mm 1 mps 758 mmHg 65%
    21:00 +18°C° 0 mm 1 mps 758 mmHg 66%
    22:00 +16°C° 0 mm 2 mps 758 mmHg 68%
    23:00 +16°C° 0 mm 2 mps 758 mmHg 69%

    24 August, Saturday

    Time Temperature Precipitation Wind Pressure Humidity
    00:00 +16°C° 0 mm 2 mps 758 mmHg 71%
    01:00 +15°C° 0 mm 2 mps 758 mmHg 73%
    02:00 +15°C° 0 mm 2 mps 758 mmHg 75%
    03:00 +15°C° 0 mm 2 mps 758 mmHg 77%
    04:00 +14°C° 0 mm 2 mps 758 mmHg 79%
    05:00 +16°C° 0 mm 2 mps 758 mmHg 75%
    06:00 +18°C° 0 mm 1 mps 758 mmHg 70%
    07:00 +20°C° 0 mm 1 mps 758 mmHg 66%
    08:00 +21°C° 0 mm 1 mps 758 mmHg 60%
    09:00 +23°C° 0 mm 1 mps 758 mmHg 54%
    10:00 +25°C° 0 mm 1 mps 759 mmHg 48%
    11:00 +25°C° 0 mm 2 mps 758 mmHg 46%
    12:00 +26°C° 0 mm 2 mps 758 mmHg 44%
    13:00 +26°C° 0 mm 2 mps 758 mmHg 42%
    14:00 +26°C° 0 mm 3 mps 757 mmHg 44%
    15:00 +25°C° 0 mm 3 mps 757 mmHg 46%
    16:00 +25°C° 0 mm 3 mps 757 mmHg 48%
    17:00 +22°C° 0 mm 3 mps 757 mmHg 55%
    18:00 +20°C° 0 mm 2 mps 756 mmHg 61%
    19:00 +18°C° 0 mm 2 mps 756 mmHg 68%
    20:00 +18°C° 0 mm 2 mps 756 mmHg 70%
    21:00 +17°C° 0 mm 2 mps 756 mmHg 72%
    22:00 +16°C° 0 mm 3 mps 756 mmHg 73%
    23:00 +16°C° 0 mm 3 mps 756 mmHg 75%
    Show more